Regional Weather Roundup
Issued by NWS

Home | Current Version | Previous Version | Graphics & Text | Print | Product List | Glossary On
Versions: 1 2 3 4 5 6 7 8 9 10 11 12 13 14 15 16 17 18 19 20 21 22 23 24 25 26 27 28 29 30 31 32 33 34 35 36 37 38 39 40 41 42 43 44 45 46 47 48 49 50
000
ASUS45 KBOI 261110
RWRID
WEATHER ROUNDUP FOR IDAHO
NATIONAL WEATHER SERVICE BOISE ID
400 AM MST FRI DEC 26 2014

NOTE: "FAIR" INDICATES FEW OR NO CLOUDS BELOW 12000 FEET
WITH NO SIGNIFICANT WEATHER AND/OR OBSTRUCTIONS TO VISIBILITY

IDZ012-014-261200-
SOUTHWEST IDAHO


CITY           SKY/WX    TMP DP  RH WIND       PRES   REMARKS
BOISE          CLOUDY    28  23  81 NW8       30.09R WCI  20
CALDWELL       CLOUDY    30  19  64 SW9       30.14S WCI  22
MOUNTAIN HOME  CLEAR     26  22  83 NW16      30.05R WCI  14
$$

IDZ016-017-261200-
SOUTHCENTRAL IDAHO


CITY           SKY/WX    TMP DP  RH WIND       PRES   REMARKS
BURLEY         PTCLDY    21  14  74 SW9       29.99R WCI  11
JEROME         CLEAR     19  16  88 S7        29.99R WCI  10
TWIN FALLS     CLEAR     22  15  75 S13       30.00R WCI  10
$$

IDZ019>023-261200-
SOUTHEAST IDAHO


CITY           SKY/WX    TMP DP  RH WIND       PRES   REMARKS
IDAHO FALLS    PTCLDY     3   0  87 CALM      29.96R
POCATELLO      CLEAR      8   5  87 S10       29.98R WCI  -6
REXBURG        PTCLDY     3  -1  83 CALM      29.94R
$$

IDZ006-010-011-018-031-032-261200-
CENTRAL IDAHO MOUNTAINS


CITY           SKY/WX    TMP DP  RH WIND       PRES   REMARKS
MCCALL         CLOUDY    22  16  78 W7        30.01R WCI  13
HAILEY         PTCLDY    18   5  57 NW12      29.95R WCI   5
STANLEY          N/A     11   5  77 NW3       29.96S
SALMON         CLOUDY    21  16  79 CALM      30.03S
CHALLIS        CLOUDY    20  13  74 E3        29.99F
$$

IDZ002-004-006-007-026-261200-
NORTHERN IDAHO


CITY           SKY/WX    TMP DP  RH WIND       PRES   REMARKS
LEWISTON       CLOUDY    33  30  88 S6        30.17R WCI  28
LOWELL           N/A     33  31  92 CALM      30.18S
COEUR D`ALENE  CLEAR     27  25  93 CALM      30.11S
MULLAN PASS    CLOUDY    20  15  81 NW8       29.94R HAZE    WCI  10
$$


USA.gov is the U.S. government's official web portal to all federal, state and local government web resources and services.